Location: Arzlohe
(49.4876°N, 11.5154°E)
Time: 14:24:13
(UTC+00:00)

Daily predictions for brighter satellites

Satellite Brightness Start Highest point End
(mag) Time Altitude Azimuth Time Altitude Azimuth Time Altitude Azimuth
USA 267 3.9 19:50:18 10° E 19:56:41 56° NNE 20:03:03 10° WNW
Meteor 1-21 Rocket 4.4 19:51:01 10° S 19:56:53 72° E 20:02:49 10° NNE
Alouette 2 Rocket 3.9 19:56:49 10° N 20:00:28 50° ENE 20:05:10 10° SSE
Cosmos 2322 Rocket 2.4 19:56:45 10° SSW 20:02:21 79° WNW 20:08:01 10° NNE
SL-08 ROCKET BODY 4.4 19:57:23 10° S 20:03:18 78° E 20:09:23 10° NNE
NOSS 7 (D) 3.9 20:01:36 10° SSW 20:04:22 52° SE 20:06:59 10° NE
Cosmos 2237 4.3 19:59:24 10° SSW 20:05:05 67° ESE 20:10:48 10° NNE
Cosmos 2084 4.4 20:02:10 10° NW 20:06:27 42° NE 20:10:40 10° ESE
Cosmos 1328 4.2 20:03:37 10° SSE 20:07:25 46° E 20:11:13 10° NNE
SAR-Lupe-2 4.4 20:06:15 10° NNE 20:09:31 32° E 20:12:45 10° SSE
Cosmos 1455 2.4 20:07:45 10° NNW 20:11:36 73° W 20:15:26 10° S
Cosmos 1825 Rocket 3.7 20:12:22 10° S 20:16:44 61° E 20:21:09 10° NNE
ATLAS CENTAUR R/B 1.9 20:14:58 10° NNW 20:18:33 42° NE 20:22:02 10° ESE
Cosmos 1703 3.2 20:17:26 10° S 20:21:18 74° E 20:25:12 10° NNE
COSMOS 2428 3.5 20:17:30 10° SSE 20:22:23 31° ESE 20:27:18 10° NE
Cosmos 1844 3.8 20:17:54 10° NNW 20:23:43 84° WSW 20:29:27 10° SSE
Cosmos 2322 3.9 20:20:38 10° S 20:26:09 53° ESE 20:31:43 10° NE
CZ-4B DEB 4.4 20:28:15 10° SSE 20:31:33 78° ENE 20:34:55 10° N
Cosmos 783 Rocket 4.5 20:27:04 10° SSW 20:32:18 80° ESE 20:37:33 10° NNE
Cosmos 1709 Rocket 4.1 20:26:38 10° S 20:32:54 74° E 20:39:16 10° NNE
NOSS 3-3 (A) 4.4 20:29:18 10° S 20:34:40 39° ESE 20:40:39 10° NE
NOSS 3-3 (C) 4.4 20:29:25 10° S 20:34:47 39° ESE 20:40:46 10° NE
Terra 2.3 20:31:40 11° SE 20:36:01 50° ENE 20:40:38 10° N
Atlas Centaur 2 4.2 20:33:02 10° SSW 20:36:04 14° S 20:38:47 11° SSE
Cosmos 2237 Rocket 3.8 20:33:12 11° SE 20:36:21 17° E 20:39:49 10° ENE
CARTOSAT-1 3.6 20:32:57 11° SSE 20:37:08 76° ENE 20:41:28 10° N
Cosmos 2333 4.3 20:32:23 10° SSW 20:37:55 62° ESE 20:43:33 10° NE
Cosmos 2219 Rocket 2.5 20:33:06 10° S 20:38:21 44° ESE 20:43:39 10° NE
Cosmos 2360 Rocket 2.5 20:34:36 10° SW 20:40:15 75° WNW 20:45:57 10° NNE
IGS 5A 4.1 20:36:19 10° S 20:40:23 53° W 20:44:29 10° NNW
Cosmos 1538 Rocket 4.5 20:36:10 10° S 20:41:13 44° ESE 20:46:16 10° NE
Cosmos 2333 Rocket 2.3 20:42:34 10° S 20:48:07 56° ESE 20:53:42 10° NE
Cosmos 1315 Rocket 2.9 20:46:50 10° N 20:50:56 68° ENE 20:54:13 15° SSE
ATLAS 2AS CENTAUR R/B 3.6 20:43:50 10° NW 20:51:21 50° NE 20:58:15 10° ESE
Resurs 01 Rocket 3.9 20:49:15 10° SW 20:52:30 20° W 20:55:46 10° NW
Cosmos-2242 4.0 20:50:10 10° NNW 20:54:19 45° W 20:58:28 10° SSW
Cosmos 1818 4.0 20:50:13 10° SW 20:55:38 69° NW 21:01:07 10° NE
Cosmos 773 Rocket 4.0 20:52:50 10° SSW 20:58:09 87° ESE 21:03:29 10° NNE
Cosmos 2221 3.0 20:55:06 10° N 20:59:23 49° ENE 21:02:29 17° SE
SL-16 R/B 4.3 20:54:36 10° WSW 20:59:35 31° NW 21:04:37 10° NNE
ERS-1 Rocket 3.3 20:56:51 11° S 21:01:38 66° WSW 21:06:40 10° NNW
GEOS 3 Rocket 3.8 20:57:17 10° NE 21:02:42 84° NW 21:08:06 10° SW
USA 215 3.3 20:59:31 10° ENE 21:06:02 61° SE 21:12:29 10° SW
Cosmos 2278 Rocket 2.4 21:03:02 10° NNW 21:08:43 64° ENE 21:13:09 17° SE
Cosmos 1892 3.8 21:07:02 19° SE 21:08:54 28° E 21:12:12 10° NNE
ATLAS 5 CENTAUR R/B 2.3 21:08:10 10° WSW 21:12:20 57° NW 21:17:06 10° NE
Meteor 1-11 4.4 21:07:02 10° SSW 21:12:40 74° WNW 21:18:24 10° N
Cosmos 1844 Rocket 4.0 21:08:22 10° NW 21:13:11 31° WSW 21:17:58 10° SSW
Gblst 52 Del rocket 4.3 21:09:25 10° WNW 21:15:05 70° SSW 21:20:33 14° SE
Cosmos 1943 Rocket 4.4 21:12:14 10° N 21:16:08 18° NE 21:20:00 10° E
SPOT 5 3.5 21:13:56 13° S 21:18:24 53° W 21:23:06 10° NNW
SL-16 R/B 4.0 21:18:56 12° ESE 21:20:45 14° E 21:23:31 10° ENE
Lacrosse 5 rocket 3.5 21:17:28 10° WNW 21:21:06 28° N 21:24:34 10° ENE
Nadezhda 3 Rocket 4.3 21:18:21 10° N 21:24:39 56° ENE 21:29:11 19° SSE
USA 81 4.5 21:20:18 10° SSW 21:25:31 62° W 21:30:47 10° N
Cosmos 2058 3.3 21:25:00 22° SSE 21:27:19 47° E 21:31:19 10° NNE
Cosmos 2154 Rocket 4.3 21:23:04 18° SSE 21:27:25 49° E 21:33:23 10° NNE
BREEZE M DEB (TANK) 3.8 21:26:35 10° WSW 21:27:39 14° SW 21:27:39 14° SW
Cosmos 1408 3.6 21:29:05 23° SE 21:30:22 29° E 21:33:31 10° NNE
Meteor 2-17 Rocket 4.5 21:27:25 17° S 21:32:09 68° E 21:38:10 10° NNE
In-Cosmos 22 Rocket 4.1 21:29:55 19° S 21:33:43 63° E 21:38:59 10° NNE
Cosmos 2074 Rocket 4.0 21:29:15 14° S 21:34:41 85° E 21:40:57 10° N
TSX-5 3.6 21:31:56 10° NNW 21:35:25 86° SW 21:37:36 26° SSE
Cosmos 1076 Rocket 3.7 21:36:08 24° SSE 21:38:32 55° E 21:42:43 10° NNE
Cosmos 1680 Rocket 3.9 21:35:41 21° S 21:38:59 47° ESE 21:44:05 10° NNE
USA 267 3.3 21:34:04 16° SE 21:39:33 77° SW 21:46:10 10° WNW
CZ-4C R/B 4.4 21:38:43 10° NW 21:44:32 32° NNE 21:51:14 10° E
Cosmos 2084 4.4 21:41:50 10° NW 21:45:57 37° WSW 21:48:05 23° S
Cosmos 1842 Rocket 4.2 21:41:56 10° NNW 21:46:08 48° W 21:49:02 18° SSW
JB-3 4.3 21:43:32 10° N 21:47:24 76° WNW 21:49:57 20° SSW
COSMOS 2455 4.3 21:43:08 10° NNW 21:48:33 33° NE 21:53:56 10° E
Cosmos 2151 4.0 21:47:18 23° SE 21:49:03 32° E 21:52:52 10° NNE
MTI 4.3 21:48:20 10° N 21:51:22 54° WNW 21:53:10 21° SW
Cosmos 923 Rocket 4.0 21:52:20 17° SSW 21:56:28 82° ESE 22:01:48 10° NNE
Cosmos 2327 Rocket 4.4 21:52:14 19° S 21:56:52 86° E 22:03:02 10° N
ATLAS CENTAUR R/B 2.7 21:54:16 10° WNW 21:57:13 23° WSW 21:58:26 19° SSW
Cosmos 1825 2.7 21:58:09 31° SE 21:59:26 43° E 22:03:04 10° NNE
ALOS 2 3.4 21:58:03 22° SE 22:00:26 41° ENE 22:04:35 10° N
Cosmos 2369 Rocket 4.1 21:56:19 10° NNW 22:00:47 24° NE 22:05:14 10° E
Cosmos 1151 Rocket 4.3 21:57:09 10° N 22:01:02 31° ENE 22:03:13 20° ESE
Cosmos 1980 3.6 21:56:55 17° SSW 22:01:20 73° ESE 22:06:59 10° NNE
Cosmos 967 Rocket 4.5 21:57:11 10° SSW 22:03:41 86° SE 22:10:11 10° NE
Cosmos 44 4.1 22:05:15 24° SE 22:05:48 25° ESE 22:09:24 10° ENE
COSMOS 2428 3.5 22:00:53 10° SW 22:06:25 52° NW 22:12:00 10° NNE
Cosmos 371 Rocket 4.3 22:04:01 10° NNW 22:08:36 39° ENE 22:11:47 18° ESE
GP-B 4.0 22:05:21 10° NNE 22:09:31 37° E 22:11:23 25° SE
Cosmos 1295 Rocket 4.4 22:06:31 23° S 22:10:35 80° E 22:16:43 10° NNE
NOSS 0 Rocket 4.0 22:07:35 10° SSW 22:13:45 83° WNW 22:19:59 10° NNE
Terra 3.6 22:10:34 11° SW 22:14:02 23° W 22:17:50 10° NW
Cosmos 1624 Rocket 4.0 22:08:50 10° NNW 22:14:07 88° ENE 22:16:57 28° SSE
NOSS 3-4 (A) 3.9 22:07:46 10° NW 22:14:41 73° SW 22:19:47 23° SSE
NOSS 3-4 (C) 3.9 22:07:52 10° NW 22:14:48 74° SW 22:19:55 23° SSE
Cosmos 2237 Rocket 2.2 22:14:58 16° SSW 22:19:37 89° WNW 22:25:22 10° NNE
SL-4 R/B 2.8 22:19:54 16° ENE 22:19:54 16° ENE 22:21:08 10° NNE
Genesis I 3.1 22:18:36 31° SSW 22:20:17 66° SE 22:24:10 10° NE
CREW DRAGON DEMO-1 DEB 4.4 22:22:53 23° E 22:22:53 23° E 22:24:19 10° E
Cosmos 2344 3.6 22:16:02 15° SSW 22:22:19 63° ESE 22:30:16 10° NE
Cosmos 2219 Rocket 3.6 22:17:13 10° WSW 22:22:24 38° NW 22:27:38 10° NNE
Elektron 1 4.4 22:21:21 19° SW 22:23:40 88° SE 22:29:33 10° NE
Cosmos 1346 Rocket 4.4 22:28:04 19° ESE 22:29:03 20° E 22:32:00 10° NE
Thor Agena Rocket 3.6 22:24:54 10° NNE 22:30:01 75° WNW 22:33:18 22° SSW
DELTA 2 R/B (1) 4.3 22:25:38 10° SW 22:36:22 - ESE 22:30:03 28° S
Cosmos 2333 Rocket 3.9 22:27:37 10° WSW 22:32:42 32° NW 22:37:50 10° NNE
Cosmos 1515 Rocket 4.3 22:37:07 10° N 22:41:19 44° ENE 22:43:15 27° SE
BREEZE-M DEB (TANK) 1.7 22:38:20 10° W 22:41:22 46° SW 22:41:22 46° SW
Cosmos 1371 Rocket 4.4 22:36:41 10° NNW 22:41:47 51° WSW 22:44:15 28° SSW
ATLAS 2AS CENTAUR R/B 3.0 22:35:10 10° NW 22:42:32 56° WSW 22:46:25 27° S
EO 1 Del DPAF 3.8 22:39:29 10° N 22:43:09 50° WNW 22:45:00 26° SW
Cosmos 1766 Rocket 3.5 22:44:24 36° S 22:46:11 81° E 22:50:37 10° NNE
Gbstr 26 Del rocket 4.1 22:49:28 24° ESE 22:49:28 24° ESE 22:52:03 10° E
Cosmos 1328 Rocket 3.4 22:44:25 10° N 22:48:45 85° E 22:50:25 37° SSE
Aureole 2 Rocket 2.2 22:46:09 10° NNW 22:48:55 53° WSW 22:48:59 53° WSW
Okean 3 Rocket 3.6 22:47:02 33° SSW 22:49:00 83° W 22:53:28 10° N
USA 215 3.8 22:42:37 10° ENE 22:49:05 63° NNW 22:55:32 10° W
Cosmos 1606 2.8 22:47:13 10° NNW 22:51:05 70° W 22:52:19 41° SSW
Cosmos 2278 Rocket 3.7 22:47:52 10° NW 22:52:19 24° WSW 22:54:59 17° SW
Cosmos 2297 3.7 22:48:32 10° NNW 22:54:17 72° WSW 22:57:11 30° SSE
Cosmos 2218 Rocket 4.0 22:50:54 28° S 22:54:30 77° E 23:00:49 10° NNE
Cosmos 304 Rocket 4.4 22:50:24 10° NNW 22:55:08 49° ENE 22:58:04 21° SE
Cosmos 2228 Rocket 4.2 22:52:39 10° N 22:56:57 38° ENE 22:59:19 22° SE
Cosmos 1420 Rocket 4.0 22:52:47 10° NNW 22:58:04 76° WSW 23:00:36 32° S
Cosmos 2366 rocket 4.0 22:56:35 28° S 23:00:11 81° E 23:06:34 10° N
Cosmos 1943 Rocket 2.4 22:55:17 10° NNW 23:00:59 69° ENE 23:04:40 22° SE
Lacrosse 5 rocket 2.4 22:57:07 10° NW 23:01:00 43° NNE 23:04:41 10° E
Cosmos 1633 3.3 23:01:11 34° SE 23:01:57 39° E 23:05:23 10° NNE
Landsat 4 4.5 22:59:31 10° NNE 23:03:06 38° E 23:03:59 33° SE
SL-16 R/B 2.1 23:00:47 28° SSW 23:03:55 79° ESE 23:09:39 10° NNE
Cosmos 2056 Rocket 4.4 23:00:39 10° NW 23:05:38 38° WSW 23:07:58 26° SSW
Cosmos 1959 Rocket 4.4 23:06:20 28° S 23:09:49 86° W 23:16:04 10° N
YAOGAN 11 4.1 23:09:09 35° SSE 23:10:59 81° ENE 23:15:25 10° NNW
Cosmos 1743 Rocket 4.0 23:12:36 33° SSE 23:14:07 50° E 23:18:20 10° NNE
Cosmos 332 Rocket 3.7 23:14:39 10° NNW 23:19:27 74° WSW 23:21:28 35° S
Cosmos 1048 Rocket 4.4 23:19:32 31° SSE 23:21:46 51° ESE 23:26:51 10° NNE
USA 267 4.3 23:21:24 23° SSW 23:23:16 26° SW 23:28:37 10° WNW
Meteor 2-3 Rocket 3.7 23:21:02 29° SSW 23:24:01 84° WNW 23:29:46 10° N
Helios 1A 3.2 23:24:53 38° SSW 23:26:14 57° WSW 23:30:22 10° NNW
Cosmos 405 2.9 23:24:44 10° NNW 23:28:19 87° W 23:29:08 51° S
Cosmos 1452 Rocket 3.7 23:27:39 10° NNW 23:32:50 58° WSW 23:35:06 32° S
CZ-4C R/B 3.1 23:27:12 10° NW 23:34:12 73° NE 23:42:22 10° SE
Meteor 2-6 Rocket 4.3 23:29:18 10° N 23:34:48 69° ENE 23:37:54 26° SSE
COSMOS 2455 2.8 23:28:57 10° NW 23:34:59 70° WSW 23:38:24 27° SSE
PSLV R/B 3.8 23:30:52 10° NNE 23:35:02 58° E 23:36:34 36° SSE
Cosmos 1825 4.5 23:32:56 11° WSW 23:35:12 17° WNW 23:37:47 10° NNW
Cosmos 1340 3.3 23:34:23 31° SW 23:35:43 45° WNW 23:39:23 10° N
Cosmos 1110 Rocket 4.2 23:31:33 10° NNW 23:36:50 70° ENE 23:40:16 22° SE
ALOS 2 4.1 23:35:27 20° WSW 23:36:56 24° W 23:40:31 10° NW
Cosmos 1408 Rocket 4.1 23:35:56 29° SW 23:37:51 51° WNW 23:42:11 10° N
SL-16 R/B 4.0 23:32:57 10° ESE 23:38:24 33° ENE 23:43:54 10° N
Cosmos 1151 Rocket 4.3 23:34:46 10° NNW 23:38:32 29° W 23:40:03 23° SW
Cosmos 1603 4.2 23:36:25 28° SSE 23:38:57 45° ESE 23:44:23 10° NE
Cosmos 1727 Rocket 4.3 23:38:36 10° NNW 23:44:41 58° W 23:48:04 27° SSW
APEX 4.0 23:42:38 10° NW 23:44:22 24° W 23:44:22 24° W
Resurs 1-4 Rocket 4.0 23:41:30 10° NE 23:45:19 19° E 23:48:44 11° SE
Cosmos 2369 Rocket 2.1 23:39:53 10° NNW 23:45:30 82° WSW 23:48:49 26° SSE
Cosmos 1500 Rocket 3.5 23:44:49 36° SSW 23:46:35 81° W 23:51:00 10° N
Cosmos 44 3.7 23:43:37 17° WSW 23:46:43 50° NW 23:51:06 10° NNE
Cosmos 371 Rocket 4.4 23:44:40 10° NW 23:48:55 31° WSW 23:50:25 26° SW
SeaSat 1 3.9 23:45:22 10° NE 23:49:20 24° ESE 23:51:20 19° SE
ISS -1.6 23:51:01 15° ESE 23:51:01 15° ESE 23:52:10 10° E
Cosmos 1000 Rocket 4.5 23:45:17 10° N 23:51:39 86° W 23:55:26 26° S
Helios 1B rocket 2.4 23:49:42 10° NNE 23:53:51 75° ESE 23:55:23 37° S
